Preview of NWS' New Version of Forecast
This preview is not operational and should not be used for support decisions.

Regional Weather Roundup (RWR)

Issued by National Weather Service (NWS)

                            
000
ASUS43 KMKX 250300
RWRWI 

WISCONSIN REGIONAL WEATHER ROUNDUP
NATIONAL WEATHER SERVICE MILWAUKEE/SULLIVAN WI
1000 PM CDT SAT AUG 24 2019

NOTE: "FAIR" INDICATES FEW OR NO CLOUDS BELOW 12,000 FEET WITH NO
SIGNIFICANT WEATHER AND/OR OBSTRUCTIONS TO VISIBILITY.

WIZ001-002-006>008-014>016-023>028-250400-
NORTHWEST WISCONSIN
  
CITY           SKY/WX    TMP DP  RH WIND       PRES   REMARKS
SUPERIOR ARPT  FAIR      52  52  99 CALM      30.17F                  
ASHLAND        FAIR      50  49  96 S3        30.19F                  
HAYWARD        FAIR      52  50  93 CALM      30.19F                  
SIREN          FAIR      55  51  85 CALM      30.16F                  
CUMBERLAND     FAIR      57  50  77 CALM      30.17F                  
RICE LAKE      CLOUDY    59  44  56 CALM      30.19F                  
CHETEK         CLOUDY    63  56  78 E6        30.19S                  
LADYSMITH      FAIR      59  53  80 E3        30.21F                  
EAU CLAIRE     NOT AVBL                                               
MENOMONIE      MOCLDY    59  52  78 SE5       30.17F                  
NEW RICHMOND   FAIR      60  52  74 CALM      30.16F                  
OSCEOLA        FAIR      58  55  88 E5        30.18F                  
$$
 
WIZ003>005-009-010-017-018-250400-
NORTH CENTRAL WISCONSIN
  
CITY           SKY/WX    TMP DP  RH WIND       PRES   REMARKS
MANITOWISH WTR FAIR      56  55  94 SE5       30.23S                  
ARBOR VITAE    FAIR      57  55  92 CALM      30.23F                  
WOODRUFF       FAIR      57  55  92 CALM      30.23F                  
RHINELANDER    FAIR      57  51  80 SE6       30.25S                  
EAGLE RIVER    FAIR      58  50  75 CALM      30.24F                  
LAND O LAKES   FAIR      53  49  87 SE5       30.25F                  
PHILLIPS       FAIR      53  53 100 CALM      30.21F                  
TOMAHAWK       FAIR      53  52  94 CALM      30.24S                  
MEDFORD        FAIR      57  53  86 SE3       30.22F                  
MERRILL        FAIR      59  55  84 SE5       30.24S                  
$$
 
WIZ029-030-035-036-043>047-250400-
CENTRAL WISCONSIN
  
CITY           SKY/WX    TMP DP  RH WIND       PRES   REMARKS
WAUSAU         FAIR      59  55  87 E8        30.21F                  
MOSINEE        FAIR      55  55 100 E6        30.24S                  
MARSHFIELD     FAIR      61  55  81 SE5       30.21F                  
STEVENS POINT  FAIR      58  52  81 SE3       30.23S                  
WAUPACA        FAIR      60  55  83 E3        30.23F                  
WAUTOMA        FAIR      60  53  77 SE5       30.23F                  
WISC RAPIDS    FAIR      62  54  74 SE7       30.22S                  
CAMP DOUGLAS   NOT AVBL                                               
$$
 
WIZ011>013-019>022-031-037>040-048>050-250400-
NORTHEAST WISCONSIN
  
CITY           SKY/WX    TMP DP  RH WIND       PRES   REMARKS
ANTIGO         FAIR      57  54  89 SE9       30.26S                  
SHAWANO        FAIR      61  53  74 SE5       30.24F                  
OCONTO         FAIR      52  51  97 CALM      30.25F                  
STURGEON BAY   FAIR      61  52  72 E5        30.26F                  
GREEN BAY      FAIR      60  52  74 E5        30.25F                  
MANITOWOC      FAIR      58  54  86 CALM      30.25F                  
APPLETON       CLEAR     63  50  63 CALM      30.24R                  
CLINTONVILLE   FAIR      59  52  78 CALM      30.24F                  
OSHKOSH        FAIR      60  51  72 E5        30.23F                  
$$
 
WIZ032>034-041-042-053>061-250400-
SOUTHWEST WISCONSIN
  
CITY           SKY/WX    TMP DP  RH WIND       PRES   REMARKS
LA CROSSE      CLOUDY    67  57  70 E5        30.16F                  
SPARTA         FAIR      57  55  94 E5        30.20F                  
VIROQUA        MOCLDY    62  58  87 SE6       30.20S                  
BOSCOBEL       FAIR      64  55  72 MISG      30.19S                  
PRAIRIE DU CHI FAIR      61  56  85 E6        30.17S                  
PLATTEVILLE    CLOUDY    60  58  90 E6        30.20S                  
$$

WIZ056-057-062-063-064-067-068-250400-
SOUTH CENTRAL WISCONSIN
  
CITY           SKY/WX    TMP DP  RH WIND       PRES   REMARKS
REEDSBURG      FAIR      60  54  80 SE5       30.21S                  
BARABOO/DELLS  FAIR      57  51  80 E5        30.22S                  
LONE ROCK      NOT AVBL                                               
MINERAL POINT  FAIR      63  55  77 E7        30.21S                  
MADISON        FAIR      60  50  69 SE7       30.22S                  
MIDDLETON      FAIR      65  49  56 SE12      30.23R                  
WATERTOWN      FAIR      57  53  86 E3        30.22F                  
MONROE         FAIR      59  51  74 E5        30.22S                  
JANESVILLE     FAIR      57  52  82 CALM      30.22S                  
$$
 
WIZ051-052-058>065-066-070>072-250400-
SOUTHEAST WISCONSIN
  
CITY           SKY/WX    TMP DP  RH WIND       PRES   REMARKS
MILWAUKEE      FAIR      67  55  65 NE12      30.22F                  
WAUKESHA       FAIR      57  50  77 E3        30.24F                  
MILWAUKEE/TIMM FAIR      63  50  63 CALM      30.23F                  
RACINE         FAIR      66  55  67 E9        30.23F                  
KENOSHA        FAIR      61  57  87 NE7       30.22F                  
FOND DU LAC    FAIR      59  50  72 E6        30.24S                  
SHEBOYGAN      FAIR      56  51  84 NE5       30.24F                  
WEST BEND      FAIR      55  52  88 CALM      30.24F                  
JUNEAU         FAIR      58  50  74 E3        30.24F                  
$$

LSZ147-162-250400-
LAKE SUPERIOR
  
STATION/POSITION TIME  TEMP    WIND        PRES    WAVE
                       AIR SEA DIR/SP/G            HT/PER
                 (UTC) (F)     (DEG/KT/KT) (MB)    (FT/S)
W MID LAKE BUOY  0150   65 64  110/ 12/ 12 1022.2F   1/ 3
DEVILS ISLAND    0200   65     120/ 11/ 14 1022.5R
SAXON HARBOR     0240   59     190/  5/  7 1021.7F
$$
 
LMZ867-665-643>646-250400-
LAKE MICHIGAN
  
STATION/POSITION TIME  TEMP    WIND        PRES    WAVE
                       AIR SEA DIR/SP/G            HT/PER
                 (UTC) (F)     (DEG/KT/KT) (MB)    (FT/S)
S GREEN BAY BUOY 0230   72 70  100/ 10/ 14 1024.4F
N MID LAKE BUOY  0240   67 70   70/  8/ 12 1025.2F
NORTHPORT PIER   0240   67      90/  5/  6 1024.4F
KEWAUNEE LAKESHO 0206   65      70/  3/  8 1024.1
SHEBOYGAN LAKESH 0200   67      60/ 12/ 13 1024.4F
PORT WASHINGTON  0230   68      70/ 10/ 14 1024.7S
ATWATER BUOY     0230   68 69   90/ 14/ 16 1023.7S   2/ 3
S MID LAKE BUOY  0240   69 72   50/ 14/ 16 1023.4F
KENOSHA   LAKESH 0200   69      60/ 13/ 15 1023.0
$$

TC  - TEMPERATURE IN CELSIUS
VSB - VISIBILITY IN STATUTE MILES
WCI - WIND CHILL INDEX
HX  - HEAT INDEX